TimeEST,TemperatureF,Dew PointF,Humidity,Sea Level PressureIn,VisibilityMPH,Wind Direction,Wind SpeedMPH,Gust SpeedMPH,PrecipitationIn,Events,Conditions,WindDirDegrees,DateUTC
1:53 AM,25.0,21.0,85,30.30,10.0,Calm,Calm,-,N/A,,Clear,0,2012-12-14 06:53:00
2:53 AM,24.1,19.9,84,30.31,10.0,Calm,Calm,-,N/A,,Clear,0,2012-12-14 07:53:00
3:53 AM,24.1,19.9,84,30.32,10.0,Calm,Calm,-,N/A,,Clear,0,2012-12-14 08:53:00
4:53 AM,23.0,19.0,85,30.31,10.0,Calm,Calm,-,N/A,,Clear,0,2012-12-14 09:53:00
5:53 AM,21.9,19.0,89,30.35,10.0,Calm,Calm,-,N/A,,Clear,0,2012-12-14 10:53:00
7:53 AM,23.0,19.0,85,30.35,10.0,Calm,Calm,-,N/A,,Clear,0,2012-12-14 12:53:00
8:53 AM,27.0,21.9,81,30.35,10.0,Calm,Calm,-,N/A,,Clear,0,2012-12-14 13:53:00
9:53 AM,37.0,28.9,73,30.35,10.0,Calm,Calm,-,N/A,,Clear,0,2012-12-14 14:53:00
10:53 AM,44.1,30.0,58,30.34,10.0,SSW,10.4,-,N/A,,Clear,200,2012-12-14 15:53:00
11:53 AM,46.9,28.9,50,30.32,10.0,SW,10.4,-,N/A,,Clear,230,2012-12-14 16:53:00
12:53 PM,48.0,28.0,46,30.30,10.0,WSW,8.1,-,N/A,,Clear,240,2012-12-14 17:53:00
1:53 PM,50.0,26.1,39,30.28,10.0,Variable,5.8,-,N/A,,Clear,0,2012-12-14 18:53:00
2:53 PM,51.1,23.0,33,30.27,10.0,Calm,Calm,-,N/A,,Clear,0,2012-12-14 19:53:00
3:53 PM,48.9,21.9,35,30.26,10.0,SSW,4.6,-,N/A,,Clear,210,2012-12-14 20:53:00
4:53 PM,45.0,19.0,36,30.26,10.0,SSW,4.6,-,N/A,,Clear,200,2012-12-14 21:53:00
5:53 PM,41.0,21.0,45,30.25,10.0,Calm,Calm,-,N/A,,Clear,0,2012-12-14 22:53:00
6:53 PM,39.9,21.9,49,30.25,10.0,Calm,Calm,-,N/A,,Clear,0,2012-12-14 23:53:00
7:53 PM,36.0,23.0,59,30.27,10.0,Calm,Calm,-,N/A,,Clear,0,2012-12-15 00:53:00
8:53 PM,32.0,24.1,73,30.28,10.0,Calm,Calm,-,N/A,,Clear,0,2012-12-15 01:53:00
9:53 PM,30.9,24.1,76,30.26,10.0,Calm,Calm,-,N/A,,Clear,0,2012-12-15 02:53:00
10:53 PM,30.9,25.0,79,30.25,10.0,Calm,Calm,-,N/A,,Clear,0,2012-12-15 03:53:00
11:53 PM,30.9,25.0,79,30.24,10.0,Calm,Calm,-,N/A,,Clear,0,2012-12-15 04:53:00